Weather History for KGSO - July, 2013

Change the Weather History Date:

Monday, July 29, 2013

  Actual Average Record
Temperature  
Mean Temperature 75 °F 78 °F  
Max Temperature 84 °F 88 °F 101 °F (1952)
Min Temperature 65 °F 69 °F 55 °F (1946)
Degree Days  
Heating Degree Days 0 0  
Month to date heating degree days 0 0  
Since 1 June heating degree days 0 6  
Since 1 July heating degree days 0 0  
Cooling Degree Days 10 13  
Month to date cooling degree days 381 396  
Year to date cooling degree days 830 862  
Since 1 June cooling degree days 680 703  
Growing Degree Days 24 (Base 50)    
Moisture  
Dew Point 62 °F    
Average Humidity 67    
Maximum Humidity 93    
Minimum Humidity 40    
Precipitation  
Precipitation 0.01 in 0.16 in 3.27 in (1923)
Month to date precipitation 5.67 4.16  
Year to date precipitation 32.39 24.59  
Sea Level Pressure  
Sea Level Pressure 30.09 in    
Wind  
Wind Speed 4 mph (NNE)    
Max Wind Speed 14 mph    
Max Gust Speed 16 mph    
Visibility 10 miles    
Events Rain    
T = Trace of Precipitation, MM = Missing Value Source: NWS Daily Summary

Daily Weather History Graph

Daily Weather History Graph

Search for Another Location

Airport or City:

Trip Planner

Search our weather history database for the weather conditions in past years. The results will help you decide how hot, cold, wet, or windy it might be!

Date:

Astronomy

Jul. 29, 2013 Rise Set
Actual Time 6:24 AM EDT 8:27 PM EDT
Civil Twilight 5:56 AM EDT 8:55 PM EDT
Nautical Twilight 5:21 AM EDT 9:30 PM EDT
Astronomical Twilight 4:44 AM EDT 10:07 PM EDT
Moon 12:03 AM EDT (7/29) 1:49 PM EDT (7/29)
Length of Visible Light 14h 59m
Length of Day
14h 02m
Waning Gibbous, 51% of the Moon is Illuminated
Jul 29
Waning Gibbous
Jul 29
Last Quarter
Aug 6
New
Aug 14
First Quarter
Aug 20
Full

Hourly Weather History & Observations

Time (EDT) Temp. Heat Index Dew Point Humidity Pressure Visibility Wind Dir Wind Speed Gust Speed Precip Events Conditions
12:54 AM 71.1 °F - 68.0 °F 90% 30.00 in 10.0 mi WSW 4.6 mph - N/A   Scattered Clouds
1:54 AM 70.0 °F - 68.0 °F 93% 30.02 in 10.0 mi WSW 3.5 mph - 0.01 in Rain Light Rain
2:54 AM 70.0 °F - 66.0 °F 87% 30.01 in 10.0 mi Calm Calm - 0.00 in   Mostly Cloudy
3:54 AM 68.0 °F - 66.0 °F 93% 30.01 in 9.0 mi Calm Calm - N/A   Scattered Clouds
4:54 AM 66.0 °F - 64.0 °F 93% 30.02 in 8.0 mi Calm Calm - N/A   Partly Cloudy
5:54 AM 66.9 °F - 64.0 °F 90% 30.04 in 8.0 mi Calm Calm - N/A   Partly Cloudy
6:54 AM 66.9 °F - 64.0 °F 90% 30.07 in 9.0 mi Calm Calm - N/A   Partly Cloudy
7:54 AM 68.0 °F - 64.0 °F 87% 30.08 in 10.0 mi NNE 4.6 mph - N/A   Scattered Clouds
8:54 AM 70.0 °F - 62.1 °F 76% 30.10 in 10.0 mi NNE 6.9 mph - N/A   Scattered Clouds
9:54 AM 73.0 °F - 60.1 °F 64% 30.11 in 10.0 mi NNE 8.1 mph - N/A   Scattered Clouds
10:54 AM 75.9 °F - 60.1 °F 58% 30.12 in 10.0 mi North 8.1 mph - N/A   Scattered Clouds
11:54 AM 78.1 °F - 60.1 °F 54% 30.12 in 10.0 mi NNE 6.9 mph - N/A   Partly Cloudy
12:54 PM 79.0 °F - 59.0 °F 50% 30.12 in 10.0 mi NE 4.6 mph - N/A   Scattered Clouds
1:54 PM 80.1 °F 80.7 °F 59.0 °F 48% 30.11 in 10.0 mi Variable 3.5 mph - N/A   Partly Cloudy
2:54 PM 80.1 °F 80.7 °F 59.0 °F 48% 30.09 in 10.0 mi Variable 3.5 mph - N/A   Partly Cloudy
3:54 PM 82.9 °F 83.2 °F 60.1 °F 46% 30.07 in 10.0 mi NW 5.8 mph - N/A   Partly Cloudy
4:54 PM 82.9 °F 82.6 °F 57.9 °F 42% 30.08 in 10.0 mi North 6.9 mph - N/A   Partly Cloudy
5:54 PM 84.0 °F 83.3 °F 57.0 °F 40% 30.09 in 10.0 mi Variable 3.5 mph - N/A   Scattered Clouds
6:54 PM 82.9 °F 82.1 °F 55.9 °F 39% 30.09 in 10.0 mi Variable 3.5 mph - N/A   Scattered Clouds
7:54 PM 79.0 °F - 57.9 °F 48% 30.11 in 10.0 mi North 3.5 mph - N/A   Mostly Cloudy
8:54 PM 73.9 °F - 60.1 °F 62% 30.14 in 10.0 mi East 3.5 mph - N/A   Mostly Cloudy
9:54 PM 72.0 °F - 61.0 °F 68% 30.15 in 10.0 mi East 4.6 mph - N/A   Partly Cloudy
10:54 PM 72.0 °F - 62.1 °F 71% 30.17 in 10.0 mi North 4.6 mph - N/A   Partly Cloudy
11:54 PM 70.0 °F - 63.0 °F 78% 30.16 in 10.0 mi Calm Calm - N/A   Scattered Clouds